Location: B�rgermoos
(47.6500°N, 9.0667°E)
Time: 07:17:52
(UTC+00:00)

A-11 Canister half - Pass Details

Date: 08 August 2021
Orbit: 1526 x 1683 km, 47.3° (Epoch: 20 September)

Event Time Altitude Azimuth Distance (km) Brightness Sun altitude
Rises 15:55:11 0° 291° (WNW) 4,909 12.6 27.5°
Reaches altitude 10° 15:58:56 10° 281° (W) 3,900 12.6 26.9°
Maximum altitude 16:06:49 28° 228° (SW) 2,691 11.4 25.5°
Drops below altitude 10° 16:14:32 10° 174° (S) 3,788 11.1 24.2°
Sets 16:18:08 0° 163° (SSE) 4,746 11.4 23.6°
